CW2972 Weather Reports


time (UTC)temp
F
wind
direction
speed
knots
gust
knots
rain 1hr
in
rain 24hr
in
rain mn
in
humidity
%
barometer
mb
20260505054622 64 0 0.0 0.0 0.00 0.07 0.00 69 1010.6
20260505054422 64 187 0.0 0.9 0.00 0.07 0.00 69 1010.7
20260505054222 64 194 0.0 0.9 0.00 0.07 0.00 68 1010.6
20260505054022 64 201 0.0 0.9 0.00 0.07 0.00 68 1010.6
20260505053822 64 207 0.0 0.9 0.00 0.07 0.00 68 1010.6
20260505053644 64 214 0.0 0.9 0.00 0.07 0.00 68 1010.7
20260505053422 65 217 0.0 0.9 0.00 0.07 0.00 68 1010.6
20260505053222 65 220 0.0 0.9 0.00 0.07 0.00 68 1010.6
20260505053022 65 220 0.0 0.9 0.00 0.07 0.00 68 1010.6
20260505052822 65 220 0.0 0.9 0.00 0.07 0.00 68 1010.6
20260505052622 65 222 0.0 0.9 0.00 0.07 0.00 68 1010.7
20260505052422 65 223 0.0 0.9 0.00 0.07 0.00 67 1010.7
20260505052243 65 223 0.0 0.9 0.00 0.07 0.00 67 1010.7
20260505052022 65 223 0.0 0.9 0.00 0.07 0.00 67 1010.8
20260505051822 65 223 0.0 0.9 0.00 0.07 0.00 67 1010.8
20260505051622 65 223 0.0 0.9 0.00 0.07 0.00 67 1010.8
20260505051422 65 223 0.0 0.9 0.00 0.07 0.00 67 1010.8
20260505051222 65 223 0.0 0.9 0.00 0.07 0.00 67 1010.9
20260505051022 65 223 0.0 0.9 0.00 0.07 0.00 67 1010.9
20260505050822 65 223 0.0 0.9 0.00 0.07 0.00 66 1011.0
20260505050623 65 223 0.0 0.9 0.00 0.07 0.00 67 1010.9
20260505050422 65 223 0.0 0.9 0.00 0.07 0.00 66 1010.9
20260505050243 65 223 0.0 0.9 0.00 0.07 0.00 66 1011.0
20260505041643 67 220 0.0 2.6 0.00 0.07 0.07 64 1010.6
20260505041422 67 220 0.0 2.6 0.00 0.07 0.07 63 1010.6
20260505041244 67 217 0.0 1.7 0.00 0.07 0.07 63 1010.6
20260505041022 67 220 0.0 1.7 0.00 0.07 0.07 63 1010.6
20260505040822 67 222 0.0 1.7 0.00 0.07 0.07 63 1010.5
20260505040622 67 222 0.0 1.7 0.00 0.07 0.07 63 1010.5
20260505040444 67 222 0.0 1.7 0.00 0.07 0.07 63 1010.6
20260505040222 68 224 0.0 1.7 0.00 0.07 0.07 63 1010.5
20260505040023 68 224 0.0 1.7 0.00 0.07 0.07 63 1010.5
20260505035822 68 220 0.0 1.7 0.00 0.07 0.07 63 1010.4
20260505035622 68 221 0.0 1.7 0.00 0.07 0.07 63 1010.5
20260505035443 68 221 0.9 1.7 0.00 0.07 0.07 63 1010.4
20260505035244 68 222 0.9 1.7 0.00 0.07 0.07 62 1010.4
20260505035022 68 221 0.9 1.7 0.00 0.07 0.07 62 1010.4
20260505034822 68 218 0.9 3.5 0.00 0.07 0.07 62 1010.4
20260505034622 68 220 0.9 3.5 0.00 0.07 0.07 62 1010.4
20260505034422 68 220 0.9 3.5 0.00 0.07 0.07 62 1010.4
20260505034243 68 220 0.9 3.5 0.00 0.07 0.07 62 1010.3
20260505034022 68 220 0.9 3.5 0.00 0.07 0.07 62 1010.3
20260505033822 68 222 0.9 3.5 0.00 0.07 0.07 62 1010.3
20260505033622 68 220 0.9 3.5 0.00 0.07 0.07 62 1010.3
20260505033422 69 220 0.9 3.5 0.00 0.07 0.07 61 1010.2
20260505033222 69 219 0.9 3.5 0.00 0.07 0.07 61 1010.2
20260505033022 69 219 0.9 4.3 0.00 0.07 0.07 61 1010.2
20260505032843 69 220 0.9 4.3 0.00 0.07 0.07 61 1010.2
20260505032622 69 215 0.9 4.3 0.00 0.07 0.07 61 1010.2
20260505032422 69 216 0.9 4.3 0.00 0.07 0.07 61 1010.2
20260505032222 69 216 0.9 4.3 0.00 0.07 0.07 61 1010.2
20260505032022 69 211 0.9 3.5 0.00 0.07 0.07 61 1010.2
20260505031822 69 211 0.9 3.5 0.00 0.07 0.07 61 1010.2
20260505031622 69 213 0.9 3.5 0.00 0.07 0.07 61 1010.2
20260505031422 69 207 0.9 3.5 0.00 0.07 0.07 61 1010.2
20260505031222 69 206 0.9 3.5 0.00 0.07 0.07 61 1010.2
20260505031024 69 207 0.9 2.6 0.00 0.07 0.07 61 1010.2
20260505030844 69 210 0.9 2.6 0.00 0.07 0.07 61 1010.1
20260505030622 69 210 0.9 2.6 0.00 0.07 0.07 61 1010.1
20260505030444 69 215 0.9 2.6 0.00 0.07 0.07 61 1009.9
20260505030244 69 221 0.9 2.6 0.00 0.07 0.07 61 1009.9
20260505030023 69 225 0.9 2.6 0.00 0.07 0.07 61 1009.8